This is the latest recevied weather packets stored in our database for station/object KG2V. If no packets are shown the sender has not sent any weather packets the latest 1 day(s).
| Time | Temp. | Humidity | Pressure | Rain* | Wind** | Luminosity | Snow |
|---|---|---|---|---|---|---|---|
| 1778080673 | 6.67° C | 99% | 1005.3 hPa | 0 mm | - | 212 W/m² | - |
| 1778080369 | 6.67° C | 99% | 1005 hPa | 0 mm | - | 202 W/m² | - |
| 1778079763 | 6.67° C | 99% | 1005 hPa | 0 mm | - | 123 W/m² | - |
| 1778079156 | 6.67° C | 99% | 1005 hPa | 0 mm | - | 127 W/m² | - |
| 1778077644 | 6.67° C | 99% | 1005.1 hPa | 0 mm | - | 92 W/m² | - |
| 1778076435 | 6.11° C | 99% | 1004.9 hPa | 1.27 mm | - | 98 W/m² | - |
| 1778071889 | 6.11° C | 99% | 1004.7 hPa | 1.78 mm | - | 28 W/m² | - |
| 1778071587 | 6.11° C | 99% | 1004.7 hPa | 1.78 mm | - | 31 W/m² | - |
| 1778070075 | 5.56° C | 99% | 1004.5 hPa | 0 mm | - | 45 W/m² | - |
| 1778066746 | 6.11° C | 99% | 1004.6 hPa | 1.78 mm | - | 9 W/m² | - |
| 1778065233 | 6.11° C | 99% | 1004.3 hPa | 1.78 mm | - | 9 W/m² | - |
| 1778064324 | 6.67° C | 99% | 1004.1 hPa | 1.27 mm | - | 6 W/m² | - |
| 1778064022 | 6.67° C | 99% | 1004.3 hPa | 1.27 mm | - | 4 W/m² | - |
| 1778063719 | 6.67° C | 99% | 1004.3 hPa | 1.78 mm | - | 4 W/m² | - |
| 1778063114 | 6.11° C | 99% | 1004.5 hPa | 1.27 mm | - | 2 W/m² | - |
| 1778061299 | 6.67° C | 99% | 1004.4 hPa | 0 mm | - | 0 W/m² | - |
| 1778060693 | 6.67° C | 99% | 1004.5 hPa | 3.05 mm | - | 0 W/m² | - |
| 1778060390 | 6.67° C | 99% | 1004.7 hPa | 3.05 mm | - | 0 W/m² | - |
| 1778059180 | 6.67° C | 99% | 1004.4 hPa | 0 mm | - | 0 W/m² | - |
| 1778058575 | 6.67° C | 99% | 1004.3 hPa | 1.27 mm | - | 0 W/m² | - |
| 1778058273 | 6.67° C | 99% | 1004.3 hPa | 0 mm | - | 0 W/m² | - |
| 1778057969 | 6.67° C | 99% | 1004.3 hPa | 1.78 mm | - | 0 W/m² | - |
| 1778057666 | 6.67° C | 99% | 1004.3 hPa | 1.78 mm | - | 0 W/m² | - |
| 1778057362 | 6.67° C | 99% | 1004.5 hPa | 0 mm | - | 0 W/m² | - |
| 1778057060 | 6.67° C | 99% | 1004.3 hPa | 0 mm | - | 0 W/m² | - |
* Rain latest hour (hover to see other rain measurements)
** Current wind speed in m/s (hover to see current wind gust speed)